SBI2169 UUDD-URMM

Flight info

Callsign SBI2169
Flight time N/A
Altitude 37000
Route TOGMO4Q TOGMO M56 ABAGI DCT NIMTA/K0820F360 DCT NATIT/K0820F370 DCT MOLED DCT LIDUS DCT OMIRA/K0833F380 DCT GOTIK DCT MEMZA A962 OKARU OKARU5A
Aircraft E170/M-SDE3GILORVW/S

Departure

Time 2026-05-04 17:21
Airport Domodedovo International Airport (UUDD)

Arrival

Time N/A
Airport Mineralnye Vody Airport (URMM)
Time Latitude Longitude Altitude Speed Heading
2026-05-04 16:34 55.41010 37.89531 600 ft 0 kts 55°
2026-05-04 17:09 55.41019 37.89530 600 ft 3 kts 354°
2026-05-04 17:10 55.40975 37.89443 600 ft 6 kts 210°
2026-05-04 17:10 55.40876 37.89512 600 ft 8 kts 164°
2026-05-04 17:11 55.40815 37.89455 600 ft 13 kts 227°
2026-05-04 17:11 55.40771 37.89343 600 ft 9 kts 235°
2026-05-04 17:11 55.40723 37.89258 600 ft 5 kts 188°
2026-05-04 17:12 55.40689 37.89284 600 ft 6 kts 146°
2026-05-04 17:12 55.40586 37.89407 600 ft 12 kts 144°
2026-05-04 17:13 55.40304 37.89747 600 ft 20 kts 145°
2026-05-04 17:14 55.40039 37.90068 600 ft 12 kts 145°
2026-05-04 17:14 55.39954 37.90166 600 ft 17 kts 147°
2026-05-04 17:14 55.39719 37.90449 600 ft 19 kts 146°
2026-05-04 17:15 55.39637 37.90542 600 ft 5 kts 159°
2026-05-04 17:15 55.39613 37.90541 600 ft 0 kts 186°
2026-05-04 17:19 55.39611 37.90538 600 ft 1 kts 202°
2026-05-04 17:20 55.39544 37.90316 600 ft 8 kts 290°
2026-05-04 17:20 55.40276 37.89381 602 ft 145 kts 326°
2026-05-04 17:20 55.41264 37.88237 1061 ft 179 kts 326°
2026-05-04 17:21 55.43465 37.85268 2562 ft 217 kts 310°